Tracking 19242 objects as of 16-Aug-2018
HD Live streaming from Space Station
objects crossing your sky now

MOLNIYA 2-17

Track MOLNIYA 2-17 now!
MOLNIYA 2-17 is classified as:


NORAD ID: 9829
Int'l Code: 1977-010A
Perigee: 526.3 km
Apogee: 39,829.1 km
Inclination: 61.3 °
Period: 717.5 minutes
Semi major axis: 26548 km
RCS: 13.3743 m2 (large)
Launch date: February 11, 1977
Source: Commonwealth of Independent States (former USSR) (CIS)
Launch site: PLESETSK MISSILE AND SPACE COMPLEX (PKMTR)
aabbcc
Your satellite tracking list
Your tracking list is empty




NASA's NSSDC Master Catalog

Two Line Element Set (TLE):
1 09829U 77010A   18227.78206652 -.00001256  00000-0 -25812-3 0  9996
2 09829  61.2633 161.5515 7402033 265.9844  15.0718  2.00695665304167
Source of the keplerian elements: AFSPC